Total_Precipitation_Accumulation
1.28 1.19 1.87 2.72 2.91 2.12 1.76 1.45 1.14 1.10 0.97 0.83 0.66 0.64 0.77 1.03 1.23 1.45 1.46 1.45 0.91 0.86 1.01 1.39 1.77 1.63 1.40 1.27 1.22 1.16 1.01 0.76 0.65 0.62 0.58 0.52 0.48 0.49 0.48 0.46 0.42 0.43 0.43 0.43 0.51 0.58 0.54 0.56 0.63
0.91 1.46 2.37 3.15 2.62 1.86 1.76 1.42 1.21 1.12 0.93 0.69 0.54 0.52 0.55 0.48 0.37 0.73 1.53 1.67 1.00 0.80 0.90 1.09 1.59 1.54 1.37 1.28 1.18 1.25 1.08 0.81 0.68 0.64 0.58 0.51 0.46 0.50 0.56 0.57 0.48 0.45 0.44 0.41 0.46 0.57 0.53 0.51 0.57
1.27 2.14 2.95 2.93 2.03 1.75 1.75 1.48 1.23 0.87 0.65 0.61 0.55 0.47 0.48 0.57 0.59 1.04 1.54 1.23 0.89 0.76 0.87 1.29 1.61 1.37 1.23 1.17 1.19 1.29 1.14 0.96 0.83 0.71 0.61 0.56 0.52 0.53 0.61 0.56 0.54 0.53 0.49 0.47 0.53 0.60 0.56 0.50 0.47
1.70 2.58 2.93 2.47 1.87 1.53 1.44 1.40 1.15 0.84 0.64 0.44 0.42 0.46 0.45 0.64 0.75 1.03 1.10 0.81 0.69 0.73 0.84 1.14 1.33 1.23 1.16 1.16 1.15 1.16 1.17 1.16 0.96 0.79 0.72 0.71 0.67 0.66 0.68 0.67 0.61 0.61 0.59 0.60 0.60 0.60 0.59 0.55 0.52
2.13 2.67 2.60 2.33 1.91 1.55 1.30 1.21 1.07 0.89 0.68 0.46 0.46 0.59 0.78 1.09 1.02 0.97 0.89 0.69 0.59 0.62 0.73 0.88 1.11 1.06 1.03 1.04 1.09 1.07 1.13 1.20 1.06 0.82 0.81 0.84 0.76 0.75 0.77 0.79 0.68 0.67 0.65 0.66 0.67 0.62 0.61 0.58 0.58
2.47 2.49 2.46 2.32 2.07 1.76 1.46 1.10 0.93 0.83 0.59 0.48 0.51 0.62 1.06 1.35 1.24 1.15 0.94 0.91 0.80 0.71 0.70 0.75 0.94 1.01 0.98 1.00 1.10 1.01 1.03 1.11 1.06 0.94 0.87 0.81 0.80 0.83 0.84 0.80 0.75 0.69 0.69 0.70 0.72 0.72 0.66 0.62 0.62
2.39 2.28 2.21 1.82 1.85 2.09 1.59 0.97 0.94 0.85 0.73 0.61 0.45 0.59 0.97 1.15 0.99 0.95 0.88 0.92 1.04 1.08 0.98 0.80 0.73 0.77 0.84 0.99 1.12 1.08 1.04 1.04 1.00 1.04 0.98 0.94 0.91 0.85 0.80 0.78 0.78 0.76 0.77 0.77 0.75 0.72 0.68 0.66 0.65
1.96 1.92 1.82 1.77 1.88 1.99 1.38 0.81 0.71 0.79 0.68 0.47 0.47 0.62 0.85 0.80 0.66 0.72 0.88 1.05 1.07 1.11 1.07 0.91 0.81 0.79 0.81 0.77 0.94 1.14 1.19 1.13 1.03 1.01 1.00 0.99 0.92 0.83 0.78 0.72 0.74 0.80 0.82 0.86 0.86 0.79 0.76 0.72 0.68
1.68 1.90 2.04 2.13 2.01 1.68 1.10 0.82 0.65 0.57 0.51 0.42 0.40 0.45 0.54 0.48 0.52 0.67 0.77 0.84 0.93 0.91 0.92 0.90 0.90 0.92 0.97 0.98 0.96 1.18 1.26 1.18 0.99 0.89 0.93 0.93 0.79 0.81 0.83 0.72 0.85 0.86 0.92 0.96 0.95 0.90 0.87 0.76 0.69
1.69 1.89 1.92 1.56 1.22 1.10 0.95 0.82 0.74 0.73 0.71 0.50 0.43 0.44 0.45 0.46 0.51 0.60 0.68 0.75 0.76 0.75 0.72 0.70 0.72 0.79 0.91 0.99 1.33 1.53 1.33 1.21 0.95 0.94 0.83 0.89 0.96 1.03 0.86 0.80 0.96 1.00 1.05 1.02 1.01 1.05 0.96 0.77 0.61
1.39 1.63 1.38 1.17 0.94 0.76 0.78 0.79 0.65 0.70 0.71 0.52 0.47 0.47 0.50 0.53 0.53 0.59 0.62 0.60 0.63 0.59 0.53 0.51 0.49 0.50 0.59 0.80 1.14 1.43 1.55 1.52 1.43 1.19 0.96 0.97 0.85 0.74 0.68 0.70 0.80 0.88 0.96 0.92 0.95 0.96 0.81 0.71 0.65
1.39 1.27 1.06 1.02 0.77 0.75 0.76 0.70 0.66 0.60 0.55 0.45 0.51 0.47 0.47 0.51 0.50 0.50 0.53 0.53 0.55 0.57 0.54 0.48 0.46 0.42 0.44 0.53 0.70 0.90 1.04 1.14 1.16 1.01 0.91 0.98 0.87 0.76 0.76 0.76 0.75 0.75 0.84 0.93 0.96 0.92 0.79 0.67 0.60
1.45 1.35 1.00 0.80 0.73 0.68 0.63 0.62 0.61 0.64 0.55 0.45 0.50 0.55 0.57 0.58 0.56 0.52 0.51 0.53 0.56 0.64 0.67 0.60 0.49 0.45 0.44 0.48 0.56 0.63 0.78 0.87 0.90 0.92 0.88 0.91 0.92 0.89 0.86 0.78 0.77 0.71 0.77 0.87 0.95 0.90 0.82 0.76 0.70
1.25 1.23 1.24 1.06 0.84 0.71 0.70 0.60 0.50 0.60 0.61 0.55 0.59 0.63 0.63 0.69 0.62 0.57 0.55 0.57 0.61 0.67 0.68 0.69 0.59 0.55 0.50 0.48 0.51 0.55 0.65 0.73 0.78 0.76 0.76 0.86 0.94 0.94 0.90 0.85 0.86 0.83 0.84 0.96 0.95 0.87 0.92 0.90 0.81
1.17 1.34 1.29 1.12 0.92 0.81 0.78 0.83 0.58 0.52 0.62 0.63 0.69 0.63 0.59 0.64 0.62 0.60 0.58 0.56 0.61 0.65 0.64 0.63 0.64 0.64 0.62 0.60 0.59 0.57 0.64 0.74 0.76 0.73 0.68 0.70 0.78 0.84 0.87 0.87 0.87 0.91 1.00 1.05 1.07 0.91 0.93 0.88 0.80
1.43 1.66 1.67 1.19 1.04 0.91 0.97 1.03 0.66 0.59 0.61 0.55 0.54 0.51 0.50 0.52 0.53 0.55 0.55 0.53 0.54 0.52 0.51 0.55 0.56 0.61 0.68 0.71 0.72 0.73 0.73 0.80 0.77 0.76 0.69 0.64 0.69 0.77 0.90 0.91 0.88 0.91 1.03 1.12 1.15 1.07 1.02 0.95 0.90
1.55 1.54 1.43 1.18 0.98 0.90 0.86 0.80 0.62 0.60 0.59 0.48 0.45 0.40 0.38 0.38 0.39 0.41 0.43 0.46 0.47 0.44 0.44 0.46 0.50 0.52 0.64 0.73 0.76 0.84 0.86 0.87 0.85 0.84 0.74 0.71 0.76 0.84 1.01 1.10 1.12 1.11 1.13 1.12 1.07 1.12 1.10 1.08 1.06
1.26 1.17 1.07 0.98 0.84 0.78 0.71 0.59 0.50 0.50 0.47 0.41 0.36 0.31 0.30 0.30 0.28 0.30 0.31 0.32 0.33 0.34 0.36 0.40 0.45 0.48 0.55 0.70 0.82 0.97 1.09 1.05 1.07 1.01 0.89 0.91 1.05 1.19 1.32 1.32 1.40 1.47 1.35 1.30 1.23 1.24 1.20 1.14 1.16
0.86 0.90 0.93 0.84 0.63 0.63 0.58 0.48 0.44 0.45 0.44 0.41 0.37 0.29 0.25 0.23 0.18 0.18 0.23 0.25 0.24 0.23 0.26 0.32 0.36 0.44 0.53 0.61 0.75 0.96 1.24 1.35 1.44 1.40 1.22 1.16 1.28 1.52 1.72 1.69 1.74 1.77 1.64 1.59 1.64 1.83 1.78 1.51 1.29
0.83 0.96 0.95 0.85 0.58 0.52 0.50 0.41 0.36 0.38 0.41 0.37 0.35 0.31 0.21 0.17 0.12 0.11 0.13 0.15 0.16 0.17 0.18 0.24 0.32 0.42 0.51 0.60 0.77 0.94 1.08 1.08 1.26 1.41 1.39 1.30 1.29 1.44 1.58 1.83 1.92 1.84 1.86 1.97 2.00 2.32 2.45 2.02 1.60
0.80 0.79 0.80 0.79 0.60 0.50 0.45 0.44 0.32 0.30 0.34 0.31 0.29 0.29 0.24 0.18 0.12 0.10 0.11 0.11 0.11 0.12 0.13 0.17 0.24 0.35 0.48 0.64 0.87 1.09 1.27 1.36 1.42 1.35 1.43 1.44 1.37 1.41 1.51 1.67 1.82 1.83 1.90 1.98 2.10 2.42 2.87 2.62 2.09
0.69 0.48 0.46 0.52 0.62 0.61 0.51 0.56 0.34 0.30 0.37 0.36 0.32 0.27 0.25 0.21 0.15 0.12 0.10 0.11 0.11 0.11 0.10 0.14 0.23 0.38 0.59 0.80 1.06 1.31 1.51 1.55 1.44 1.48 1.51 1.39 1.34 1.31 1.37 1.51 1.65 1.77 1.79 1.93 2.02 2.13 2.59 2.90 2.59
0.44 0.36 0.35 0.41 0.50 0.46 0.36 0.43 0.35 0.33 0.43 0.42 0.37 0.32 0.26 0.22 0.19 0.17 0.15 0.17 0.18 0.17 0.19 0.26 0.46 0.71 0.96 1.17 1.43 1.72 1.72 1.61 1.51 1.51 1.48 1.42 1.43 1.40 1.39 1.54 1.61 1.63 1.68 1.78 2.11 2.36 2.61 2.80 2.73
0.31 0.34 0.37 0.40 0.46 0.44 0.29 0.34 0.40 0.35 0.39 0.42 0.41 0.34 0.26 0.22 0.26 0.31 0.34 0.40 0.45 0.48 0.62 0.82 1.09 1.27 1.36 1.49 1.64 1.76 1.73 1.74 1.68 1.50 1.40 1.40 1.44 1.49 1.54 1.60 1.60 1.58 1.61 1.72 1.94 2.21 2.42 2.73 2.89
0.25 0.36 0.55 0.59 0.59 0.43 0.26 0.39 0.47 0.38 0.32 0.32 0.33 0.29 0.23 0.27 0.36 0.48 0.62 0.75 0.86 0.99 1.13 1.26 1.44 1.59 1.54 1.51 1.56 1.59 1.60 1.59 1.57 1.51 1.41 1.36 1.37 1.38 1.42 1.53 1.65 1.73 1.75 1.87 2.04 2.18 2.09 2.31 2.68
0.22 0.31 0.58 0.69 0.56 0.41 0.36 0.56 0.57 0.44 0.33 0.25 0.19 0.19 0.28 0.41 0.54 0.65 0.73 0.84 1.01 1.15 1.21 1.22 1.33 1.43 1.40 1.38 1.35 1.32 1.37 1.40 1.35 1.28 1.26 1.29 1.36 1.34 1.28 1.33 1.44 1.58 1.74 1.79 1.84 1.86 1.83 1.95 2.20
0.19 0.22 0.28 0.44 0.35 0.35 0.46 0.68 0.60 0.39 0.33 0.27 0.23 0.27 0.42 0.61 0.81 0.96 1.06 1.18 1.23 1.26 1.32 1.24 1.24 1.30 1.31 1.24 1.15 1.13 1.18 1.24 1.25 1.19 1.20 1.19 1.18 1.11 1.03 1.04 1.08 1.16 1.25 1.32 1.48 1.57 1.68 1.73 1.85
0.18 0.26 0.34 0.53 0.59 0.59 0.62 0.70 0.61 0.48 0.44 0.47 0.53 0.64 0.69 0.80 1.05 1.34 1.59 1.76 1.59 1.32 1.22 1.18 1.11 1.12 1.20 1.18 1.10 1.06 1.13 1.14 1.12 1.15 1.12 1.11 1.11 1.03 0.96 0.92 0.87 0.84 0.83 0.87 1.05 1.25 1.37 1.47 1.63
0.20 0.32 0.41 0.54 0.64 0.80 0.97 1.03 0.85 0.86 0.88 0.96 1.07 1.11 1.12 1.21 1.20 1.35 1.55 1.72 1.63 1.32 1.09 1.10 1.12 1.09 1.07 1.06 1.07 1.07 1.04 0.94 0.92 0.97 0.97 0.96 0.96 1.01 1.00 0.91 0.85 0.91 0.91 0.88 0.94 1.00 1.06 1.12 1.27
0.31 0.43 0.57 0.77 0.70 0.74 0.94 1.10 0.96 0.94 0.96 1.06 1.24 1.31 1.30 1.21 1.11 1.09 1.15 1.21 1.24 1.10 0.91 0.88 1.03 1.09 1.04 1.01 1.03 1.01 0.92 0.86 0.82 0.80 0.77 0.68 0.66 0.69 0.78 0.87 0.82 0.80 0.83 0.85 0.92 0.94 0.98 0.99 1.07